Regional Weather Roundup
Issued by NWS

Home | Current Version | Previous Version | Text Only | Print | Product List | Glossary Off
Versions: 1 2 3 4 5 6 7 8 9 10 11 12 13 14 15 16 17 18 19 20 21 22 23 24 25 26 27 28 29 30 31 32 33 34 35 36 37 38 39 40 41 42 43 44 45 46 47 48 49 50

000
ASUS43 KFSD 292210
RWRSD

WEATHER ROUNDUP FOR SOUTH DAKOTA
NATIONAL WEATHER SERVICE SIOUX FALLS SD
500 PM CDT WED MAR 29 2017

NOTE: "FAIR" INDICATES FEW OR NO CLOUDS BELOW 12,000 FEET WITH NO
SIGNIFICANT WEATHER AND/OR OBSTRUCTIONS TO VISIBILITY.


SDZ001>005-009-010-012>017-292300-
NORTHWEST AND NORTH CENTRAL SOUTH DAKOTA

CITY           SKY/WX    TMP DP  RH WIND       PRES   REMARKS
BUFFALO          N/A     62  27  26 NW8       29.87F
FAITH            N/A     56  40  55 MISG      29.97F
MOBRIDGE       SUNNY     63  28  26 S9        29.96F
$$

SDZ012>016-024>037-041>051-057-063-072>074-292300-
SOUTHWEST AND SOUTH CENTRAL SOUTH DAKOTA

CITY           SKY/WX    TMP DP  RH WIND       PRES   REMARKS
RAPID CTY ARPT PTSUNNY   56  37  49 NE9       29.97F
PIERRE         CLOUDY    59  34  39 SE15      29.99F
CUSTER         CLOUDY    45  36  70 E8        29.99F
ELLSWORTH AFB  PTSUNNY   55  38  52 E8        29.97F
PHILIP         CLOUDY    56  39  53 VRB5      30.00F
PINE RIDGE     CLOUDY    54  39  57 VRB6      29.99F
SPEARFISH      FAIR      55  34  44 NE10      29.98S
WINNER         MOCLDY    52  38  58 E17       30.01S
$$

SDZ004>011-016>023-039-040-292300-
NORTHEAST SOUTH DAKOTA

CITY           SKY/WX    TMP DP  RH WIND       PRES   REMARKS
ABERDEEN       CLOUDY    60  29  30 SE14      30.04S
WATERTOWN      PTSUNNY   51  33  50 SE16G23   30.07S
BROOKINGS      CLOUDY    47  36  65 E20G25    30.07S
SISSETON         N/A     58  35  42 S16       30.06F
$$

SDZ017-020-022-023-036>040-048>070-292300-
SOUTHEAST SOUTH DAKOTA

CITY           SKY/WX    TMP DP  RH WIND       PRES   REMARKS
SIOUX FALLS    LGT RAIN  43  40  89 E24G33    30.05F
HURON          PTSUNNY   55  36  48 SE12      30.04F
CHAMBERLAIN    CLOUDY    53  38  57 E13G20    30.04S
MITCHELL       CLOUDY    53  35  50 E18G26    30.05F
YANKTON        CLOUDY    43  37  81 NE21G30   30.00F
$$

ABBREVIATIONS USED IN REMARKS
   TC - TEMPERATURE IN CELSIUS
  WCI - WIND CHILL INDEX
   HX - HEAT INDEX
  VSB - VISIBILITY





USA.gov is the U.S. government's official web portal to all federal, state and local government web resources and services.